| time (UTC) | temp C | wind direction | speed KPH | gust KPH | rain 1hr cm | rain 24hr cm | rain mn cm | humidity % | barometer mb |
| 20260504110234 | 16 | 175 | 1.6 | 3.2 | 0.00 | 0.00 | 0.00 | 25 | 1015.7 |
| 20260504100233 | 17 | 88 | 1.6 | 3.2 | 0.00 | 0.00 | 0.00 | 25 | 1015.3 |
| 20260504081234 | 18 | 242 | 3.2 | 9.7 | 0.00 | 0.00 | 0.00 | 25 | 1014.2 |
| 20260504080233 | 19 | 303 | 8.0 | 16.1 | 0.00 | 0.10 | 0.00 | 25 | 1014.0 |
| 20260504070234 | 20 | 318 | 9.7 | 8.0 | 0.00 | 0.10 | 0.00 | 25 | 1014.6 |
| 20260504060233 | 21 | 318 | 16.1 | 16.1 | 0.00 | 0.20 | 0.00 | 25 | 1014.5 |
| 20260504050233 | 23 | 338 | 11.3 | 14.5 | 0.00 | 0.84 | 0.00 | 25 | 1014.3 |
| 20260504045234 | 22 | 354 | 12.9 | 19.3 | 0.00 | 0.94 | 0.00 | 25 | 1014.1 |
| 20260504044233 | 22 | 335 | 12.9 | 22.5 | 0.00 | 1.04 | 0.00 | 25 | 1014.1 |
| 20260504043233 | 21 | 324 | 9.7 | 11.3 | 0.00 | 1.27 | 0.00 | 25 | 1013.8 |
| 20260504042234 | 22 | 338 | 9.7 | 22.5 | 0.00 | 1.37 | 0.00 | 25 | 1014.0 |
| 20260504041234 | 21 | 208 | 8.0 | 11.3 | 0.00 | 1.47 | 0.00 | 25 | 1014.0 |
| 20260504040234 | 21 | 338 | 8.0 | 14.5 | 0.00 | 1.47 | 0.00 | 25 | 1013.7 |
| 20260504035232 | 21 | 158 | 9.7 | 20.9 | 0.00 | 1.47 | 0.00 | 25 | 1013.9 |
| 20260504034234 | 22 | 187 | 4.8 | 4.8 | 0.00 | 1.47 | 0.00 | 25 | 1013.9 |
| 20260504033234 | 20 | 320 | 4.8 | 8.0 | 0.00 | 1.57 | 0.00 | 25 | 1013.4 |
| 20260504032234 | 21 | 315 | 4.8 | 8.0 | 0.00 | 1.57 | 0.00 | 25 | 1013.6 |
| 20260504031232 | 21 | 338 | 3.2 | 4.8 | 0.00 | 1.57 | 0.00 | 25 | 1013.6 |
| 20260504030234 | 20 | 82 | 4.8 | 8.0 | 0.00 | 1.57 | 0.00 | 25 | 1013.6 |
| 20260504025234 | 20 | 355 | 4.8 | 9.7 | 0.00 | 1.68 | 0.00 | 25 | 1013.6 |
| 20260504024232 | 20 | 199 | 8.0 | 8.0 | 0.00 | 1.68 | 0.00 | 25 | 1013.6 |
| 20260504023232 | 20 | 313 | 9.7 | 14.5 | 0.00 | 1.91 | 0.00 | 25 | 1014.0 |
| 20260504022234 | 20 | 13 | 8.0 | 14.5 | 0.00 | 2.11 | 0.00 | 25 | 1013.7 |
| 20260504021233 | 20 | 356 | 16.1 | 19.3 | 0.00 | 2.11 | 0.00 | 25 | 1013.7 |
| 20260504020234 | 21 | 200 | 11.3 | 25.7 | 0.00 | 2.21 | 0.00 | 25 | 1013.6 |
| 20260504015233 | 20 | 222 | 9.7 | 12.9 | 0.00 | 2.21 | 0.00 | 25 | 1013.9 |
| 20260504014234 | 20 | 58 | 4.8 | 14.5 | 0.00 | 2.31 | 0.00 | 25 | 1013.9 |
| 20260504013233 | 19 | 309 | 4.8 | 3.2 | 0.00 | 2.31 | 0.00 | 25 | 1013.6 |
| 20260504012232 | 19 | 163 | 11.3 | 9.7 | 0.00 | 2.31 | 0.00 | 25 | 1013.9 |
| 20260504011232 | 18 | 93 | 4.8 | 4.8 | 0.00 | 2.31 | 0.00 | 25 | 1013.9 |
| 20260504010232 | 19 | 325 | 9.7 | 12.9 | 0.00 | 2.31 | 0.00 | 25 | 1014.1 |
| 20260504005233 | 18 | 325 | 8.0 | 4.8 | 0.00 | 2.31 | 0.00 | 25 | 1013.9 |
| 20260504004233 | 18 | 317 | 9.7 | 19.3 | 0.00 | 2.31 | 0.00 | 25 | 1013.9 |
| 20260504003233 | 18 | 358 | 3.2 | 22.5 | 0.00 | 2.31 | 0.00 | 25 | 1013.8 |
| 20260504002234 | 18 | 338 | 4.8 | 4.8 | 0.00 | 2.31 | 0.00 | 25 | 1013.4 |
| 20260504001234 | 17 | 132 | 4.8 | 4.8 | 0.00 | 2.31 | 0.00 | 25 | 1013.5 |
| 20260504000234 | 18 | 333 | 4.8 | 9.7 | 0.00 | 2.31 | 0.00 | 25 | 1013.5 |
| 20260503235232 | 17 | 303 | 1.6 | 3.2 | 0.00 | 2.31 | 0.00 | 25 | 1013.3 |
| 20260503234234 | 17 | 338 | 11.3 | 22.5 | 0.00 | 2.31 | 0.00 | 25 | 1013.3 |
| 20260503233233 | 17 | 315 | 3.2 | 3.2 | 0.00 | 2.31 | 0.00 | 25 | 1013.0 |
| 20260503232232 | 17 | 186 | 9.7 | 19.3 | 0.00 | 2.31 | 0.00 | 25 | 1012.4 |
| 20260503231233 | 17 | 322 | 4.8 | 4.8 | 0.00 | 2.31 | 0.00 | 25 | 1012.4 |
| 20260503230232 | 17 | 29 | 8.0 | 8.0 | 0.00 | 2.31 | 0.00 | 25 | 1012.4 |
| 20260503225234 | 16 | 19 | 3.2 | 4.8 | 0.00 | 2.31 | 0.00 | 25 | 1012.3 |
| 20260503224233 | 16 | 158 | 3.2 | 3.2 | 0.00 | 2.31 | 0.00 | 25 | 1012.3 |
| 20260503223234 | 16 | 19 | 3.2 | 3.2 | 0.00 | 2.31 | 0.00 | 25 | 1012.2 |
| 20260503222233 | 16 | 16 | 1.6 | 4.8 | 0.00 | 2.31 | 0.00 | 25 | 1012.0 |
| 20260503221232 | 16 | 278 | 3.2 | 3.2 | 0.00 | 2.31 | 0.00 | 25 | 1012.0 |
| 20260503220232 | 16 | 209 | 3.2 | 3.2 | 0.00 | 2.31 | 0.00 | 26 | 1011.9 |
| 20260503215232 | 15 | 235 | 3.2 | 4.8 | 0.00 | 2.31 | 0.00 | 25 | 1011.4 |
| 20260503214233 | 15 | 72 | 1.6 | 3.2 | 0.00 | 2.31 | 0.00 | 27 | 1011.4 |
| 20260503213233 | 15 | 298 | 1.6 | 3.2 | 0.00 | 2.31 | 0.00 | 27 | 1011.1 |
| 20260503212233 | 15 | 277 | 3.2 | 3.2 | 0.00 | 2.31 | 0.00 | 31 | 1010.7 |
| 20260503211233 | 14 | 356 | 3.2 | 4.8 | 0.00 | 2.31 | 0.00 | 31 | 1010.7 |
| 20260503210234 | 14 | 191 | 3.2 | 1.6 | 0.00 | 2.31 | 0.00 | 32 | 1010.1 |
| 20260503205232 | 14 | 338 | 3.2 | 4.8 | 0.00 | 2.31 | 0.00 | 33 | 1010.3 |
| 20260503204234 | 14 | 174 | 3.2 | 9.7 | 0.00 | 2.31 | 0.00 | 32 | 1010.3 |
| 20260503203233 | 14 | 338 | 8.0 | 11.3 | 0.00 | 2.31 | 0.00 | 35 | 1009.8 |
| 20260503202233 | 15 | 305 | 4.8 | 4.8 | 0.00 | 2.31 | 0.00 | 38 | 1009.5 |
| 20260503201232 | 15 | 4 | 4.8 | 4.8 | 0.00 | 2.31 | 0.00 | 40 | 1009.5 |
| 20260503200232 | 15 | 224 | 1.6 | 1.6 | 0.00 | 2.31 | 0.00 | 38 | 1009.0 |
| 20260503195233 | 15 | 243 | 0.0 | 0.0 | 0.00 | 2.31 | 0.00 | 39 | 1009.1 |
| 20260503194233 | 15 | 252 | 1.6 | 3.2 | 0.00 | 2.31 | 0.00 | 35 | 1009.1 |
| 20260503193232 | 15 | 190 | 3.2 | 8.0 | 0.00 | 2.31 | 0.00 | 38 | 1008.9 |
| 20260503192233 | 15 | 70 | 3.2 | 9.7 | 0.00 | 2.31 | 0.00 | 38 | 1008.7 |
| 20260503191233 | 15 | 237 | 3.2 | 4.8 | 0.00 | 2.31 | 0.00 | 37 | 1008.7 |
| 20260503190233 | 15 | 273 | 3.2 | 4.8 | 0.00 | 2.31 | 0.00 | 36 | 1008.6 |
| 20260503185233 | 15 | 158 | 1.6 | 3.2 | 0.00 | 2.31 | 0.00 | 37 | 1008.7 |
| 20260503184234 | 15 | 248 | 3.2 | 4.8 | 0.00 | 2.31 | 0.00 | 41 | 1008.7 |
| 20260503183232 | 15 | 243 | 3.2 | 9.7 | 0.00 | 2.31 | 0.00 | 37 | 1008.7 |
| 20260503182232 | 15 | 238 | 3.2 | 4.8 | 0.00 | 2.31 | 0.00 | 41 | 1008.3 |
| 20260503181233 | 15 | 205 | 3.2 | 3.2 | 0.00 | 2.31 | 0.00 | 39 | 1008.3 |
| 20260503180234 | 15 | 151 | 4.8 | 4.8 | 0.00 | 2.31 | 0.00 | 41 | 1008.3 |
| 20260503175232 | 15 | 187 | 1.6 | 1.6 | 0.00 | 2.31 | 0.00 | 44 | 1008.3 |
| 20260503174232 | 15 | 202 | 1.6 | 8.0 | 0.00 | 2.31 | 0.00 | 44 | 1008.3 |
| 20260503173233 | 15 | 14 | 3.2 | 4.8 | 0.00 | 2.31 | 0.00 | 43 | 1008.3 |
| 20260503172233 | 15 | 217 | 4.8 | 4.8 | 0.00 | 2.31 | 0.00 | 46 | 1008.6 |
| 20260503171232 | 15 | 233 | 3.2 | 3.2 | 0.00 | 2.31 | 0.00 | 46 | 1008.1 |
| 20260503170233 | 15 | 358 | 3.2 | 4.8 | 0.00 | 2.31 | 0.00 | 51 | 1008.1 |
| 20260503150232 | 15 | 205 | 4.8 | 4.8 | 0.00 | 2.31 | 0.00 | 52 | 1007.2 |
| 20260503140233 | 15 | 202 | 1.6 | 4.8 | 0.00 | 2.31 | 2.31 | 61 | 1006.7 |
| 20260503131232 | 15 | 249 | 4.8 | 9.7 | 0.00 | 2.31 | 2.31 | 62 | 1006.4 |
| 20260503130233 | 15 | 242 | 3.2 | 4.8 | 0.00 | 2.31 | 2.31 | 63 | 1006.7 |